Regional Weather Roundup
Issued by NWS Upton, NY

Home | Current Version | Previous Version | Text Only | Print | Product List | Glossary On
Versions: 1 2 3 4 5 6 7 8 9 10 11 12 13 14 15 16 17 18 19 20 21 22 23 24 25 26 27 28 29 30 31 32 33 34 35 36 37 38 39 40 41 42 43 44 45 46 47 48
000
ASUS41 KOKX 311304
RWROKX

REGIONAL WEATHER ROUNDUP
NATIONAL WEATHER SERVICE NEW YORK NY
900 AM EDT MON AUG 31 2015

NOTE: "FAIR" INDICATES FEW OR NO CLOUDS BELOW 12,000 FEET WITH NO
SIGNIFICANT WEATHER AND/OR OBSTRUCTIONS TO VISIBILITY.

NYZ071-072-176-178-NJZ106-104-311400-
NEW YORK CITY METRO AREA


CITY           SKY/WX    TMP DP  RH WIND       PRES   REMARKS
CENTRAL PARK   PTSUNNY   79  66  64 W3        30.06S
LAGUARDIA APRT PTSUNNY   79  66  64 W6        30.03S
KENNEDY INTL   PTSUNNY   80  68  66 SW10      30.05R
NEWARK/LIBERTY CLOUDY    79  68  69 W6        30.04S
BRNX BOT. GARD   N/A     79  66  65 W8        30.04R
TETERBORO      PTSUNNY   79  65  62 W6        30.03S
$$

NYZ177-179-078>081-311400-
LONG ISLAND NEW YORK

CITY           SKY/WX    TMP DP  RH WIND       PRES   REMARKS
FARMINGDALE    PTSUNNY   79  68  69 W6        30.03S
ISLIP          PTSUNNY   79  69  71 W9        30.01S
SHIRLEY        PTSUNNY   79  69  71 SW8       30.03S
WESTHAMPTON    PTSUNNY   78  70  76 W8        30.04S
MONTAUK POINT    N/A     77  70  79 W7        30.02S
$$

NYZ052-065-067-311400-
HUDSON VALLEY

CITY           SKY/WX    TMP DP  RH WIND       PRES   REMARKS
WHITE PLAINS   CLOUDY    76  67  73 NW8       30.03F
NEWBURGH       PTSUNNY   70  68  94 W7        30.05S
MONTGOMERY     PTSUNNY   75  69  81 SW6       30.04S
POUGHKEEPSIE   PTSUNNY   74  68  81 CALM      30.02S
ALBANY         PTSUNNY   69  66  90 S5        30.02R FOG
$$

NJZ001-105-106-008-010-013-015-019>022-104-311400-
NEW JERSEY

CITY           SKY/WX    TMP DP  RH WIND       PRES   REMARKS
NEWARK/LIBERTY CLOUDY    79  68  69 W6        30.04S
TETERBORO      PTSUNNY   79  65  62 W6        30.03S
CALDWELL       CLOUDY    76  67  73 SW3       30.05S
MORRISTOWN     CLOUDY    79  70  73 CALM      30.05S
SOMERVILLE     PTSUNNY   76  68  76 CALM      30.03F
SUSSEX         NOT AVBL
ANDOVER          N/A     73  68  84 S3        30.07S
TRENTON        PTSUNNY   78  69  73 W5        30.06S
MILLVILLE      CLOUDY    76  69  79 SW5       30.08S
ATLANTIC CITY    N/A     78  68  71 W9        30.07S
WRIGHTSTOWN    CLOUDY    74  69  85 W7        30.04S
TOMS RIVER     CLOUDY    73  70  88 W5        30.07S
BELMAR         CLOUDY    75  63  64 W6        30.06S
$$

PAZ047>061-062-071-311400-
EASTERN PENNSYLVANIA

CITY           SKY/WX    TMP DP  RH WIND       PRES   REMARKS
PHILADELPHIA   CLOUDY    78  68  71 SW7       30.07S
ALLENTOWN      CLOUDY    74  67  78 W3        30.07S
SCRANTON       PTSUNNY   72  66  81 CALM      30.09S
$$

CTZ002-004>006-009-010-012-RIZ004-006-007-MAZ004-011-015-311400-
SOUTHERN NEW ENGLAND
 IN CT

CITY           SKY/WX    TMP DP  RH WIND       PRES   REMARKS
BRADLEY INTL   PTSUNNY   74  68  81 CALM      30.00S
HARTFORD       PTSUNNY   75  68  78 CALM      30.00S
DANBURY        PTSUNNY   75  66  73 SW6       30.05S
WTRBRY/OXFORD  NOT AVBL
BRIDGEPORT     PTSUNNY   80  68  66 W7        30.01S
MERIDEN        PTSUNNY   79  67  66 VRB3      30.01S
NEW HAVEN      PTSUNNY   76  68  76 W3        30.02R
CHESTER        NOT AVBL
GROTON         PTSUNNY   76  72  87 SW8       30.00S
WILLIMANTIC    PTSUNNY   70  67  90 CALM      30.01S

 IN RI

CITY           SKY/WX    TMP DP  RH WIND       PRES   REMARKS
PROVIDENCE     PTSUNNY   77  69  76 W9        29.99S
BLOCK ISLAND   PTSUNNY   73  70  88 SW10      30.01S
WESTERLY       PTSUNNY   77  71  82 W5        30.01S

 IN MA

CITY           SKY/WX    TMP DP  RH WIND       PRES   REMARKS
BOSTON         MOSUNNY   78  65  63 W10       29.97S
WORCESTER      SUNNY     73  64  73 W9        30.02S
WESTFIELD      MOSUNNY   72  65  78 VRB5      30.01S
PROVINCETOWN     N/A     75  64  69 W8        29.98R
NANTUCKET      PTSUNNY   76  70  82 W14       29.99S
$$

ANZ330-335-338-340-345-350-353-355-311400-
COASTAL MARINE OBSERVATIONS


STATION/POSITION TIME  SKY/WX   TEMP    WIND        PRES    VSBY  WAVE
                                AIR SEA DIR/SP/G                  HT/PER
                 (UTC)          (F)     (DEG/KT/KT) (MB)    (MI)  (FT/S)
NY HARB ENTRANCE 1150            76 76  250/ 12/ 14 1016.8          3/10
4S FIRE IS       NOT AVBL
20S FIRE ISLAND  1150            75 74  240/ 16/ 17 1016.9          4/ 5
GREAT SOUTH BAY  1200            76 77  260/ 14/ 17   N/A
23SW MTP         1250            74 72  250/ 16/ 19 1015.9          4/ 6
HUDSON CANYON    NOT AVBL
KINGS POINT      NOT AVBL
EXECUTION ROCKS  1200            77     250/  6/  8   N/A
CENTRAL LI SOUND NOT AVBL
EASTERN LI SOUND 1200            73 71  250/  8/ 10   N/A
ROBBINS REEF     NOT AVBL
$$


>>>>>>>>>>>>>>>>>>>>>>>>>>>> KEY <<<<<<<<<<<<<<<<<<<<<<<<<<<
>                                                          <
>     SKY/WX - SKY CONDITION/PRESENT WEATHER               <
>     TMP    - TEMPERATURE IN FAHRENHEIT                   <
>     DP     - DEWPOINT IN FAHRENHEIT                      <
>     RH     - RELATIVE HUMIDITY IN PERCENT                <
>     WIND   - DIRECTION AND SPEED IN MPH                  <
>     PRES   - MEAN SEA LEVEL PRESSURE IN INCHES OF HG     <
>     WCI    - WIND CHILL INDEX                            <
>     VSB    - VISIBILITY IN MILES                         <
>     HX     - HEAT INDEX                                  <
>     TC     - TEMPERATURE IN CELSIUS                      <
>     VRB    - VARIABLE WIND DIRECTION                     <
>                                                          <
>>>>>>>>>>>>>>>>>>>>>>>>>>>> KEY <<<<<<<<<<<<<<<<<<<<<<<<<<<





USA.gov is the U.S. government's official web portal to all federal, state and local government web resources and services.